Curtin Aero, Australia

10:13 PM AWST on February 22, 2017 (GMT +0800)
Curtin

Weather History for YCIN - May, 2013

Change the Weather History Date:

Sunday, May 5, 2013

  Actual Average Record
Temperature  
Mean Temperature 84 °F -  
Max Temperature 101 °F - - ()
Min Temperature 67 °F - - ()
Cooling Degree Days 19    
Growing Degree Days 34 (Base 50)    
Moisture  
Dew Point 60 °F    
Average Humidity 51    
Maximum Humidity 78    
Minimum Humidity 12    
Precipitation  
Precipitation 0.00 in - - ()
Sea Level Pressure  
Sea Level Pressure 29.86 in    
Wind  
Wind Speed 3 mph ()    
Max Wind Speed 8 mph    
Max Gust Speed -    
T = Trace of Precipitation, MM = Missing Value Source: Averaged Metar Reports

Daily Weather History Graph

Daily Weather History Graph

Search for Another Location

Airport or City:

Trip Planner

Search our weather history database for the weather conditions in past years. The results will help you decide how hot, cold, wet, or windy it might be!

Date:

Astronomy

May. 05, 2013 Rise Set
Actual Time 5:58 AM AWST 5:23 PM AWST
Civil Twilight 5:36 AM AWST 5:46 PM AWST
Nautical Twilight 5:10 AM AWST 6:12 PM AWST
Astronomical Twilight 4:44 AM AWST 6:38 PM AWST
Moon 1:40 AM AWST (5/5) 2:06 PM AWST (5/5)
Length of Visible Light 12h 09m
Length of Day
11h 24m
Waning Crescent, 22% of the Moon is Illuminated
May 5
Waning Crescent
May 10
New
May 18
First Quarter
May 25
Full
Jun 1
Last Quarter

Hourly Weather History & Observations

Time (AWST) Temp. Heat Index Dew Point Humidity Pressure Visibility Wind Dir Wind Speed Gust Speed Precip Events Conditions
12:00 AM 72 °F - 59 °F 55% 29.88 in - SSW 3.5 mph - -  
12:00 AM 73.4 °F - 59.0 °F 61% 29.89 in - SSW 3.5 mph - N/A   Unknown
1:00 AM 71.6 °F - 60.8 °F 69% 29.86 in - South 3.5 mph - N/A   Unknown
2:00 AM 71.6 °F - 64.4 °F 78% 29.86 in - SSW 4.6 mph - N/A   Unknown
3:00 AM 72 °F - 64 °F 68% 29.84 in - South 4.6 mph - -  
3:00 AM 71.6 °F - 64.4 °F 78% 29.83 in - South 4.6 mph - N/A   Unknown
4:00 AM 75.2 °F - 60.8 °F 61% 29.86 in - East 4.6 mph - N/A   Unknown
5:00 AM 69.8 °F - 60.8 °F 73% 29.89 in - Calm Calm - N/A   Unknown
6:00 AM 67 °F - 61 °F 76% 29.90 in - Calm Calm - -  
6:00 AM 68.0 °F - 60.8 °F 78% 29.89 in - Calm Calm - N/A   Unknown
7:00 AM 73.4 °F - 66.2 °F 78% 29.92 in - WNW 1.2 mph - N/A   Unknown
8:00 AM 82.4 °F 83.9 °F 64.4 °F 54% 29.92 in - WNW 5.8 mph - N/A   Unknown
9:00 AM 87 °F - 63 °F 34% 29.92 in - NW 3.5 mph - -  
9:00 AM 87.8 °F 88.5 °F 62.6 °F 43% 29.92 in - NW 3.5 mph - N/A   Unknown
10:00 AM 91.4 °F 89.4 °F 55.4 °F 29% 29.89 in - West 4.6 mph - N/A   Unknown
11:00 AM 95.0 °F 93.0 °F 55.4 °F 26% 29.86 in - SE 3.5 mph - N/A   Unknown
12:00 PM 98 °F - 55 °F 15% 29.84 in - NNW 4.6 mph - -  
12:00 PM 98.6 °F 97.2 °F 55.4 °F 24% 29.83 in - NNW 4.6 mph - N/A   Unknown
1:00 PM 100.4 °F 98.4 °F 53.6 °F 21% 29.80 in - SSW 5.8 mph - N/A   Unknown
2:00 PM 100.4 °F - 51.8 °F 20% 29.80 in - SW 8.1 mph - N/A   Unknown
3:00 PM 100 °F - 52 °F 12% 29.78 in - NW 3.5 mph - -  
3:00 PM 100.4 °F - 51.8 °F 20% 29.77 in - NW 3.5 mph - N/A   Unknown
4:00 PM 98.6 °F 97.6 °F 57.2 °F 25% 29.80 in - NNW 8.1 mph - N/A   Unknown
5:00 PM 93.2 °F 92.6 °F 59.0 °F 32% 29.80 in - NNW 4.6 mph - N/A   Unknown
6:00 PM 83 °F - 60 °F 35% 29.83 in - North 3.5 mph - -  
6:00 PM 82.4 °F 82.5 °F 59.0 °F 45% 29.83 in - North 3.5 mph - N/A   Unknown
7:00 PM 78.8 °F - 60.8 °F 54% 29.86 in - NW 4.6 mph - N/A   Unknown
8:00 PM 77.0 °F - 62.6 °F 61% 29.89 in - NNW 4.6 mph - N/A   Unknown
9:00 PM 78 °F - 68 °F 65% 29.88 in - NW 4.6 mph - -  
9:00 PM 77.0 °F - 68.0 °F 74% 29.89 in - NW 4.6 mph - N/A   Unknown
10:00 PM 78.8 °F - 69.8 °F 74% 29.89 in - North 4.6 mph - N/A   Unknown
11:00 PM 75.2 °F - 68.0 °F 78% 29.86 in - Calm Calm - N/A   Unknown